TimeMDT,TemperatureF,Dew PointF,Humidity,Sea Level PressureIn,VisibilityMPH,Wind Direction,Wind SpeedMPH,Gust SpeedMPH,PrecipitationIn,Events,Conditions,WindDirDegrees,DateUTC
12:15 AM,55.4,35.6,47,30.19,10.0,NW,10.4,-,N/A,,Clear,320,2013-05-20 06:15:00
12:35 AM,55.4,35.6,47,30.19,10.0,NW,11.5,17.3,N/A,,Clear,320,2013-05-20 06:35:00
12:55 AM,53.6,35.6,51,30.19,10.0,NW,11.5,-,N/A,,Clear,320,2013-05-20 06:55:00
1:15 AM,53.6,35.6,51,30.19,10.0,NW,12.7,16.1,N/A,,Clear,310,2013-05-20 07:15:00
1:35 AM,53.6,35.6,51,30.19,10.0,WNW,11.5,-,N/A,,Clear,300,2013-05-20 07:35:00
2:15 AM,51.8,35.6,54,30.19,10.0,WNW,10.4,-,N/A,,Clear,290,2013-05-20 08:15:00
2:35 AM,50.0,37.4,62,30.18,10.0,WNW,9.2,-,N/A,,Clear,300,2013-05-20 08:35:00
2:55 AM,50.0,37.4,62,30.19,10.0,WNW,9.2,-,N/A,,Clear,290,2013-05-20 08:55:00
3:35 AM,50.0,37.4,62,30.19,10.0,WNW,10.4,-,N/A,,Clear,290,2013-05-20 09:35:00
3:55 AM,50.0,37.4,62,30.19,10.0,WNW,10.4,-,N/A,,Clear,290,2013-05-20 09:55:00
4:15 AM,50.0,37.4,62,30.19,10.0,WNW,11.5,-,N/A,,Clear,290,2013-05-20 10:15:00
4:35 AM,50.0,37.4,62,30.19,10.0,West,10.4,-,N/A,,Clear,280,2013-05-20 10:35:00
4:55 AM,48.2,37.4,66,30.19,10.0,West,10.4,-,N/A,,Clear,280,2013-05-20 10:55:00
5:15 AM,48.2,37.4,66,30.19,10.0,WNW,9.2,-,N/A,,Clear,290,2013-05-20 11:15:00
5:35 AM,48.2,35.6,62,30.19,10.0,West,9.2,-,N/A,,Clear,280,2013-05-20 11:35:00
5:55 AM,48.2,35.6,62,30.20,10.0,West,9.2,-,N/A,,Clear,280,2013-05-20 11:55:00
6:15 AM,48.2,35.6,62,30.20,10.0,West,9.2,-,N/A,,Clear,280,2013-05-20 12:15:00
6:35 AM,48.2,35.6,62,30.20,10.0,WNW,9.2,-,N/A,,Clear,290,2013-05-20 12:35:00
6:55 AM,48.2,35.6,62,30.21,10.0,WNW,9.2,-,N/A,,Clear,300,2013-05-20 12:55:00
7:15 AM,50.0,35.6,58,30.21,10.0,WNW,9.2,-,N/A,,Clear,290,2013-05-20 13:15:00
7:35 AM,50.0,35.6,58,30.22,10.0,WNW,10.4,-,N/A,,Clear,290,2013-05-20 13:35:00
8:15 AM,53.6,35.6,51,30.23,10.0,WNW,11.5,-,N/A,,Clear,300,2013-05-20 14:15:00
8:35 AM,55.4,35.6,47,30.23,10.0,NW,11.5,17.3,N/A,,Clear,310,2013-05-20 14:35:00
8:55 AM,55.4,35.6,47,30.23,10.0,NW,12.7,17.3,N/A,,Clear,310,2013-05-20 14:55:00
9:35 AM,57.2,37.4,48,30.23,10.0,NW,12.7,-,N/A,,Clear,320,2013-05-20 15:35:00
9:55 AM,57.2,37.4,48,30.23,10.0,NNW,10.4,-,N/A,,Clear,330,2013-05-20 15:55:00
10:15 AM,59.0,37.4,45,30.22,10.0,NNW,10.4,-,N/A,,Clear,330,2013-05-20 16:15:00
10:35 AM,60.8,37.4,42,30.22,10.0,NW,8.1,-,N/A,,Clear,320,2013-05-20 16:35:00
10:55 AM,62.6,37.4,39,30.21,10.0,WNW,12.7,17.3,N/A,,Clear,290,2013-05-20 16:55:00
11:15 AM,62.6,37.4,39,30.20,10.0,NW,9.2,-,N/A,,Clear,310,2013-05-20 17:15:00
11:35 AM,64.4,37.4,37,30.20,10.0,NNW,9.2,-,N/A,,Clear,330,2013-05-20 17:35:00
11:55 AM,64.4,35.6,34,30.19,10.0,WNW,9.2,-,N/A,,Clear,290,2013-05-20 17:55:00
12:15 PM,64.4,35.6,34,30.18,10.0,NW,9.2,-,N/A,,Clear,320,2013-05-20 18:15:00
12:55 PM,66.2,35.6,32,30.17,9.0,NW,4.6,-,N/A,,Clear,310,2013-05-20 18:55:00
1:15 PM,68.0,35.6,30,30.17,9.0,WNW,6.9,-,N/A,,Clear,300,2013-05-20 19:15:00
1:35 PM,68.0,35.6,30,30.16,1.2,NNW,6.9,-,N/A,,Clear,340,2013-05-20 19:35:00
1:55 PM,68.0,35.6,30,30.15,10.0,SSW,5.8,-,N/A,,Clear,210,2013-05-20 19:55:00
2:15 PM,69.8,35.6,28,30.15,10.0,NW,6.9,-,N/A,,Clear,310,2013-05-20 20:15:00
2:35 PM,71.6,35.6,27,30.14,10.0,West,10.4,-,N/A,,Clear,260,2013-05-20 20:35:00
2:55 PM,69.8,32.0,25,30.13,10.0,West,6.9,-,N/A,,Clear,280,2013-05-20 20:55:00
3:15 PM,71.6,32.0,23,30.12,10.0,West,8.1,-,N/A,,Clear,260,2013-05-20 21:15:00
3:35 PM,71.6,32.0,23,30.11,10.0,NNW,6.9,-,N/A,,Clear,340,2013-05-20 21:35:00
3:55 PM,73.4,32.0,22,30.10,10.0,WSW,3.5,-,N/A,,Clear,240,2013-05-20 21:55:00
4:15 PM,73.4,32.0,22,30.09,10.0,West,4.6,-,N/A,,Clear,280,2013-05-20 22:15:00
4:35 PM,71.6,32.0,23,30.08,10.0,Calm,Calm,-,N/A,,Clear,0,2013-05-20 22:35:00
4:55 PM,73.4,30.2,20,30.07,10.0,Calm,Calm,-,N/A,,Clear,0,2013-05-20 22:55:00
5:15 PM,73.4,32.0,22,30.06,10.0,NE,8.1,-,N/A,,Clear,40,2013-05-20 23:15:00
5:35 PM,73.4,32.0,22,30.05,10.0,NW,3.5,-,N/A,,Clear,310,2013-05-20 23:35:00
5:55 PM,73.4,30.2,20,30.05,10.0,North,8.1,-,N/A,,Clear,10,2013-05-20 23:55:00
6:15 PM,73.4,32.0,22,30.04,10.0,North,8.1,-,N/A,,Clear,10,2013-05-21 00:15:00
6:35 PM,73.4,32.0,22,30.03,10.0,NNW,5.8,-,N/A,,Clear,340,2013-05-21 00:35:00
6:55 PM,73.4,30.2,20,30.02,10.0,North,3.5,-,N/A,,Clear,360,2013-05-21 00:55:00
7:15 PM,73.4,30.2,20,30.02,10.0,North,4.6,-,N/A,,Clear,350,2013-05-21 01:15:00
7:35 PM,73.4,30.2,20,30.01,10.0,Calm,Calm,-,N/A,,Clear,0,2013-05-21 01:35:00
8:15 PM,71.6,32.0,23,30.00,10.0,East,4.6,-,N/A,,Clear,90,2013-05-21 02:15:00
8:35 PM,69.8,33.8,27,30.00,10.0,East,4.6,-,N/A,,Clear,90,2013-05-21 02:35:00
8:55 PM,68.0,33.8,28,29.99,10.0,East,3.5,-,N/A,,Clear,100,2013-05-21 02:55:00
9:15 PM,66.2,35.6,32,29.99,10.0,East,3.5,-,N/A,,Clear,90,2013-05-21 03:15:00
9:35 PM,64.4,35.6,34,29.98,10.0,Calm,Calm,-,N/A,,Clear,0,2013-05-21 03:35:00
9:55 PM,62.6,37.4,39,29.99,10.0,Calm,Calm,-,N/A,,Clear,0,2013-05-21 03:55:00
10:15 PM,59.0,37.4,45,29.98,10.0,Calm,Calm,-,N/A,,Clear,0,2013-05-21 04:15:00
10:35 PM,59.0,37.4,45,29.98,10.0,Calm,Calm,-,N/A,,Clear,0,2013-05-21 04:35:00
10:55 PM,55.4,39.2,54,29.98,10.0,ESE,3.5,-,N/A,,Clear,120,2013-05-21 04:55:00
11:15 PM,55.4,37.4,51,29.97,10.0,Calm,Calm,-,N/A,,Clear,0,2013-05-21 05:15:00
11:35 PM,55.4,37.4,51,29.97,10.0,SSE,4.6,-,N/A,,Clear,150,2013-05-21 05:35:00
11:55 PM,53.6,37.4,54,29.97,10.0,SE,5.8,-,N/A,,Clear,130,2013-05-21 05:55:00